Lapse_Rate
7.0 6.5 6.5 6.5 6.5 6.5 6.5 6.5 6.5 6.5 6.5 6.5 6.5 6.5 6.5 7.2 7.3 7.3 7.5 7.6 7.6 7.8 8.5 7.8 6.2 6.2 5.9 5.6 4.8 4.1 3.7 3.7 4.1 4.6 4.9 5.3 6.0 6.3 6.1 5.9 5.6 5.4 5.2 5.6
6.5 6.5 6.5 6.5 6.5 6.5 6.5 6.5 6.5 6.5 6.5 6.5 6.5 6.5 6.5 6.8 7.0 7.3 7.4 7.5 7.6 7.9 7.9 6.8 5.9 5.6 5.7 5.6 4.9 4.3 4.0 4.0 3.8 4.4 4.6 5.4 5.8 6.4 6.5 6.3 5.6 5.4 5.6 5.6
6.5 6.5 6.6 6.5 6.5 6.5 6.5 6.5 6.5 6.5 6.5 6.5 6.5 6.5 6.5 6.6 7.2 7.4 7.7 7.8 7.9 7.8 7.8 6.2 5.9 5.4 5.8 5.4 4.5 4.5 3.7 3.5 3.4 3.1 4.1 4.6 5.0 5.2 5.1 5.9 6.4 6.0 5.7 5.7
6.5 6.6 6.5 6.5 6.5 6.5 6.5 6.5 6.5 6.5 6.5 6.5 6.5 6.5 6.5 6.5 6.5 6.8 7.3 7.6 7.8 7.9 7.8 7.1 5.4 5.3 5.3 5.2 4.7 4.0 3.8 3.4 3.5 3.8 4.1 4.3 5.9 5.4 5.0 4.5 6.0 6.2 5.1 6.1
6.5 6.5 6.5 6.5 6.5 6.5 6.5 6.5 6.5 6.5 6.5 6.5 6.5 6.5 6.5 6.5 6.5 6.5 7.0 7.5 7.8 8.0 7.8 7.1 5.8 5.1 4.7 5.2 4.6 3.9 3.4 3.3 3.7 3.8 4.1 5.0 4.8 5.1 5.7 6.3 5.6 5.7 5.7 4.0
6.5 7.0 6.5 6.5 6.5 6.5 6.5 6.5 6.5 6.5 6.5 6.5 6.5 6.5 6.5 6.5 6.5 6.5 7.0 7.4 7.6 7.9 8.0 6.9 6.4 5.3 4.5 4.6 4.6 4.6 3.5 3.3 3.5 3.5 4.0 4.1 4.5 5.0 5.9 6.1 6.3 6.8 7.0 6.7
6.5 6.5 6.5 6.7 6.5 6.5 6.5 6.5 6.5 6.5 6.5 6.5 6.5 6.5 6.5 6.5 6.5 6.6 6.7 7.3 7.5 7.9 7.9 6.9 5.5 4.8 4.7 4.7 4.5 4.4 3.8 3.6 3.7 3.9 4.3 4.3 4.7 5.1 5.4 5.7 6.9 6.6 7.2 7.1
6.5 6.5 6.5 6.5 6.5 6.5 6.5 6.5 6.5 6.5 6.5 6.5 6.5 6.5 6.5 6.5 7.1 7.3 7.4 7.5 7.7 7.8 7.9 7.3 6.3 5.6 5.4 5.2 4.9 4.8 4.5 4.3 4.4 4.7 4.4 4.4 4.1 5.0 5.1 5.6 6.2 6.8 7.4 7.4
6.5 6.5 6.5 6.5 6.5 6.5 6.5 6.5 6.5 6.5 6.5 6.5 6.5 6.5 6.5 6.5 6.5 6.9 7.2 7.4 7.5 7.7 7.7 5.8 5.8 5.9 5.7 5.5 5.4 5.4 5.0 5.1 5.1 5.2 5.1 4.8 5.0 5.1 5.4 5.8 5.5 6.0 6.1 6.9
6.5 6.5 6.5 6.5 6.7 6.6 6.5 6.5 6.5 6.5 6.5 6.5 6.5 6.5 6.5 6.5 6.5 6.5 6.7 7.1 7.4 7.6 6.8 5.8 5.8 5.6 5.3 5.6 5.3 5.3 5.7 5.9 5.3 5.3 5.3 5.7 5.6 5.6 5.3 4.9 5.1 5.5 5.7 5.8
6.5 6.5 6.5 6.5 6.5 6.5 6.5 6.5 6.5 6.5 6.5 6.5 6.5 6.5 6.5 6.5 6.5 6.5 6.9 7.3 7.3 7.2 6.4 6.4 6.5 5.6 5.0 5.4 5.6 5.5 5.4 5.3 5.4 5.5 5.7 5.3 5.7 5.5 5.7 5.7 5.8 5.9 5.8 5.8
6.5 6.5 6.5 6.5 6.5 6.5 6.5 6.5 6.5 6.5 6.5 6.5 6.5 6.5 6.5 6.5 6.8 7.0 7.1 7.3 7.6 7.6 7.4 6.1 5.4 5.1 5.2 5.6 5.2 5.4 5.1 5.4 5.7 5.9 5.5 5.8 5.4 5.5 5.7 6.0 6.4 6.4 6.2 6.4
6.5 6.5 6.5 6.5 6.5 6.5 6.5 6.5 6.5 6.5 6.5 6.5 6.5 6.5 6.5 6.7 6.8 7.1 7.2 7.4 7.5 7.1 6.1 5.4 4.9 5.4 5.5 5.0 4.7 5.3 5.4 6.4 6.3 5.7 5.8 5.6 5.3 5.6 5.5 5.9 5.8 5.7 5.8 6.1
5.8 6.5 6.5 6.5 6.5 6.5 6.5 6.5 6.5 6.5 6.5 6.5 6.5 6.5 6.5 6.5 6.5 6.9 7.2 7.5 7.4 5.9 5.8 5.6 5.5 5.4 5.1 4.9 5.0 5.1 5.8 6.3 5.9 5.4 5.1 4.8 5.4 5.5 5.7 5.4 5.4 5.6 5.6 5.6
6.5 6.5 6.5 6.5 6.5 6.5 6.5 6.5 6.5 6.5 6.5 6.5 6.5 6.5 6.5 6.5 6.5 6.9 7.2 7.3 7.3 7.3 6.3 5.7 5.5 4.9 4.7 4.9 5.3 5.4 5.4 5.5 5.2 4.7 5.0 5.0 5.1 5.2 5.2 5.3 5.5 5.3 5.4 6.0
6.5 6.5 6.5 6.5 6.5 6.5 6.5 6.5 6.5 6.5 6.5 6.5 6.5 6.5 6.5 7.0 7.2 7.1 7.2 7.3 7.4 7.5 7.4 5.9 5.6 5.4 5.5 5.6 5.8 5.8 5.4 4.9 4.6 4.5 5.1 5.4 5.0 5.1 5.2 5.4 5.4 5.1 5.3 6.4
6.5 6.5 6.5 6.5 6.5 6.5 6.5 6.5 6.5 6.5 6.5 6.5 6.5 6.5 6.7 6.5 6.8 7.0 7.2 7.4 7.4 7.5 5.9 5.7 6.2 6.1 6.0 6.1 5.5 5.3 5.2 4.9 4.8 5.2 5.4 5.4 5.2 5.4 5.7 5.5 5.2 5.2 6.0 7.1
6.5 6.5 6.5 6.5 6.5 6.5 6.5 6.5 6.5 6.5 6.5 6.5 6.5 6.5 6.6 6.9 7.3 7.4 7.5 7.6 7.2 6.9 6.6 6.4 6.4 5.8 5.4 5.1 4.8 4.4 5.0 5.1 5.6 5.8 5.8 5.3 5.5 5.7 5.7 5.3 5.6 6.3 6.8 7.1
6.5 6.5 6.5 6.5 6.5 6.5 6.5 6.5 6.5 6.5 6.5 6.5 6.5 6.6 7.0 7.3 7.4 7.2 6.6 6.6 6.6 6.5 6.1 5.1 4.6 4.5 4.5 5.1 4.8 4.6 4.7 5.2 5.5 5.6 5.8 6.0 6.1 5.9 5.7 5.3 5.8 6.8 6.8 6.9
6.5 6.5 6.5 6.5 6.5 6.5 6.5 6.5 7.1 6.7 6.5 6.8 6.9 6.8 7.0 7.1 6.5 6.5 6.7 6.5 6.1 5.1 4.6 4.7 4.6 4.9 5.1 4.5 4.2 4.1 4.7 4.8 5.3 6.0 6.0 6.2 6.1 5.6 5.5 6.4 6.6 6.7 6.7 6.7
6.5 6.5 6.5 6.5 6.5 6.5 6.5 6.7 7.2 6.5 6.5 7.0 7.2 7.1 7.2 6.6 6.8 6.5 6.5 5.7 5.2 4.9 4.7 4.6 4.9 4.9 4.6 4.4 3.9 4.2 4.8 5.4 6.1 6.5 6.6 6.3 6.2 6.0 6.7 6.8 7.1 6.9 6.8 6.5
6.5 6.5 6.5 6.5 6.5 6.5 7.0 6.8 6.5 6.6 6.5 7.3 7.4 7.4 7.2 7.1 6.4 6.4 5.8 5.1 5.1 4.9 4.7 4.5 4.7 4.8 4.8 4.6 4.5 5.1 5.5 6.0 6.3 6.7 6.4 6.4 6.6 7.0 7.7 7.2 6.9 6.6 6.7 6.7
6.5 6.5 6.5 6.5 6.5 6.8 7.3 7.1 6.7 6.3 7.3 7.4 7.4 6.8 7.5 7.4 7.0 5.9 5.4 5.1 5.1 5.0 4.9 5.1 5.4 5.3 5.5 5.5 5.5 5.7 5.9 6.1 6.2 6.3 6.5 6.7 7.1 7.4 7.6 7.2 6.9 8.0 8.6 8.3
6.5 6.9 6.5 6.5 6.5 6.7 7.2 7.5 7.6 7.7 7.3 6.8 6.8 6.5 6.9 6.6 5.9 5.5 5.4 5.4 5.5 5.5 5.3 5.5 6.0 6.0 6.0 5.7 5.7 6.3 6.6 6.4 6.6 6.8 6.9 7.3 6.9 7.1 7.4 8.1 9.0 8.5 8.2 7.8
6.7 6.7 6.5 6.5 6.6 7.1 7.3 7.1 7.0 5.8 5.5 5.2 5.1 5.4 5.4 6.0 5.7 5.8 5.9 5.8 5.5 5.2 5.2 5.3 5.5 5.5 5.9 5.8 6.1 6.6 6.1 5.6 5.7 5.8 6.0 5.5 6.9 7.1 7.4 8.2 7.1 6.5 7.2 5.6
7.0 6.5 6.5 6.5 6.9 6.9 7.1 5.9 6.0 6.3 5.5 5.6 6.0 5.8 5.6 6.2 6.4 6.5 6.6 5.8 5.5 4.8 4.0 4.1 4.2 5.4 5.5 5.4 5.3 5.3 4.7 4.5 4.7 5.7 6.0 5.8 6.1 6.8 5.7 5.1 5.3 4.4 2.5 1.9
Wind_Speed
2 4 8 7 7 1 2 2 2 2 2 2 2 5 9 11 11 12 13 13 14 14 12 13 14 13 12 11 12 13 12 11 9 8 7 8 9 8 8 12 14 13 14 15
4 8 4 4 5 4 5 6 3 5 3 2 4 5 7 10 11 11 12 13 13 11 10 12 13 14 14 14 13 12 13 13 12 10 7 7 5 7 9 10 14 16 16 15
5 3 5 3 5 6 2 1 3 4 6 7 7 2 3 6 10 10 12 11 12 13 12 11 12 14 13 14 14 14 14 14 13 13 8 7 6 6 6 8 8 11 16 16
5 2 5 6 5 6 4 5 3 7 5 3 3 8 4 6 10 14 14 14 14 14 12 12 13 13 15 14 13 15 15 14 12 12 10 12 9 8 7 5 7 8 13 14
3 5 6 6 4 6 2 4 4 3 4 5 3 5 4 4 11 17 16 16 15 15 14 15 16 16 14 14 16 14 13 12 11 10 11 9 12 9 9 8 9 9 8 12
3 1 3 2 4 2 10 4 5 4 2 5 3 5 6 8 17 14 12 13 15 15 15 14 13 12 13 12 12 10 11 11 11 11 13 14 14 11 8 8 8 9 9 8
3 3 1 2 7 5 2 3 3 4 4 1 3 3 5 4 8 11 15 13 13 14 13 13 13 13 12 11 10 9 10 10 10 11 12 12 12 10 10 10 8 9 8 7
7 8 7 5 4 4 3 1 1 3 2 2 2 4 1 5 10 9 11 10 10 12 12 13 14 13 11 10 11 11 10 9 9 10 10 8 9 7 7 9 8 8 8 9
6 5 1 1 3 2 5 5 3 5 2 3 0 2 7 5 1 7 11 10 12 12 13 13 13 12 10 10 10 9 8 7 7 7 6 7 7 9 8 10 9 8 10 9
3 7 1 5 3 12 3 9 4 1 2 3 2 3 4 2 5 8 12 13 12 12 11 11 11 9 6 6 5 6 6 5 4 5 5 5 6 5 6 7 10 10 10 10
6 3 5 4 1 7 6 4 6 4 2 2 3 1 4 5 8 12 14 14 14 13 12 11 8 6 5 6 6 6 6 4 4 4 3 3 4 5 7 8 9 10 10 11
7 2 5 3 3 2 1 5 6 5 5 0 3 5 4 5 7 12 14 13 13 12 10 8 7 7 7 7 6 6 5 5 3 3 1 3 5 7 9 10 12 12 13 14
10 4 5 5 4 3 3 4 4 6 3 7 5 5 1 4 6 11 15 14 11 11 10 7 6 7 7 7 7 7 5 5 3 1 3 5 8 8 10 12 13 13 14 15
10 4 10 11 14 5 6 8 9 4 5 6 7 8 5 4 6 6 9 10 12 13 12 8 7 8 8 8 6 5 5 4 2 3 5 7 9 9 10 13 14 14 15 16
5 6 4 1 6 7 9 13 11 7 5 6 2 5 5 5 6 7 6 6 8 9 9 8 9 8 6 5 4 4 4 5 5 7 8 9 7 9 12 14 14 15 15 15
1 5 5 4 3 8 8 10 9 6 6 4 5 6 4 5 5 3 1 5 7 8 9 8 7 6 6 7 8 7 8 6 5 8 10 8 8 10 12 14 15 15 16 15
5 8 5 7 3 8 4 13 12 6 8 6 6 5 3 6 7 4 3 7 9 10 8 7 7 6 5 5 5 6 7 8 8 9 9 9 9 12 13 14 15 15 15 14
9 7 2 5 7 7 4 2 6 6 7 7 1 4 3 3 1 2 4 7 8 8 7 6 3 3 6 8 9 9 9 9 9 11 11 10 11 13 14 14 15 15 11 12
1 6 4 5 7 2 3 5 7 8 7 8 5 4 4 5 5 4 4 4 6 5 5 6 6 7 7 8 9 10 11 11 11 13 12 12 12 13 13 14 13 11 12 12
7 6 4 4 5 8 3 3 6 5 6 10 9 9 11 8 5 4 5 5 7 8 6 6 6 6 8 10 11 11 12 13 14 14 13 12 11 11 13 13 12 11 11 12
4 3 5 5 3 1 0 2 7 7 2 8 11 10 10 5 3 5 6 7 7 6 7 7 7 7 9 11 11 12 13 14 14 12 12 12 11 11 12 12 11 11 12 11
5 5 3 3 3 6 2 7 8 1 2 8 9 8 6 6 6 7 6 5 6 7 8 10 9 9 10 9 9 11 12 13 12 12 12 13 12 10 10 12 12 12 12 12
3 0 4 2 2 2 1 3 2 3 8 8 10 8 6 6 4 5 5 6 7 8 8 7 7 9 9 9 10 12 13 13 13 13 14 13 13 12 11 10 12 11 12 11
2 2 3 6 3 3 2 3 3 5 10 9 9 8 5 6 5 6 5 5 6 6 7 7 9 10 11 11 11 10 12 12 13 15 15 13 12 11 10 8 8 9 10 10
2 7 8 3 3 4 3 4 5 9 10 11 10 8 7 6 5 4 3 3 4 5 8 9 9 10 11 12 12 11 13 13 12 12 11 11 10 10 10 9 8 8 11 8
6 7 7 5 11 3 9 6 5 9 9 8 9 8 8 6 4 2 3 4 6 7 8 9 9 9 10 11 10 10 12 12 13 12 9 7 8 8 6 6 9 10 12 15
Wind_Direction
72 215 222 208 210 171 161 165 136 107 2 173 200 133 177 179 195 183 181 184 199 212 204 202 206 201 201 201 200 202 201 204 203 211 225 237 239 240 244 247 249 249 248 253
174 233 238 198 189 232 190 162 144 105 23 186 164 93 186 198 209 208 197 197 199 198 210 207 203 204 203 203 204 202 207 201 203 207 215 228 232 238 247 242 242 240 245 248
204 118 144 186 169 182 146 157 168 143 104 77 137 144 168 209 220 219 221 219 210 207 209 201 211 211 206 210 205 207 204 207 208 205 212 225 240 250 251 244 250 246 244 247
247 227 203 180 199 200 165 186 145 138 177 164 323 211 227 209 221 229 220 214 211 210 210 207 202 210 212 212 210 215 213 210 213 208 220 231 243 241 237 233 246 257 238 245
159 178 175 186 169 184 111 114 111 103 106 159 182 233 197 204 233 231 220 217 215 211 208 211 209 211 210 208 212 215 212 216 218 215 224 233 244 249 260 261 264 254 249 242
261 267 244 146 90 75 144 95 63 77 110 217 135 239 224 214 231 221 224 223 213 206 205 214 218 214 212 210 217 215 212 218 211 213 217 225 238 252 261 265 273 273 272 263
196 196 230 174 118 115 157 150 155 193 200 233 116 193 276 237 265 235 221 218 208 201 199 204 208 211 215 209 208 210 207 212 207 213 222 229 241 252 259 269 273 285 288 283
189 188 182 165 213 165 163 210 151 203 231 123 151 230 149 305 284 246 229 205 198 197 197 203 208 214 212 202 200 202 199 204 204 213 226 232 242 253 261 264 272 277 277 278
171 214 117 71 124 204 152 158 76 109 104 248 53 248 264 341 8 192 190 183 193 196 196 202 206 210 207 200 197 201 197 204 209 216 222 228 237 244 264 281 281 281 282 280
180 189 114 137 120 56 208 135 151 82 197 282 161 268 277 299 221 195 197 193 187 193 190 198 202 195 197 189 175 189 193 206 201 208 223 243 253 278 287 289 288 288 287 280
164 237 146 176 198 155 145 142 67 106 328 281 299 276 219 251 223 214 205 197 191 192 196 198 193 186 182 164 169 170 162 172 186 200 226 251 314 324 311 291 289 289 290 285
177 175 147 148 344 280 42 140 162 212 188 137 300 279 175 265 254 217 214 211 210 206 198 194 186 168 164 159 161 154 141 166 196 208 257 327 321 304 293 293 296 297 292 289
173 205 148 142 146 172 186 137 118 106 127 190 240 271 140 295 254 222 217 214 207 204 199 195 177 171 166 161 157 155 160 193 206 287 314 300 285 287 301 306 306 301 294 289
138 134 210 212 219 148 172 170 166 181 196 171 232 285 293 321 294 246 235 224 205 200 196 184 173 175 172 169 167 176 193 214 242 276 259 267 280 301 314 311 305 301 295 287
169 165 166 96 157 158 166 163 163 184 172 232 156 220 285 315 320 299 238 218 202 192 175 165 166 166 169 167 177 214 247 253 249 259 263 267 299 318 316 309 302 298 292 283
99 133 144 121 137 162 157 165 175 157 160 148 199 258 265 318 306 285 229 167 171 165 155 156 162 170 174 194 217 228 244 268 264 261 266 295 313 312 303 299 297 296 294 287
131 142 173 152 130 116 153 193 180 164 179 179 216 276 325 295 310 304 186 167 162 161 160 172 183 196 208 238 273 296 310 311 295 283 284 291 299 302 303 304 301 297 295 291
133 114 86 130 152 201 87 185 211 193 175 196 188 254 310 322 36 119 157 161 153 151 159 176 193 315 338 339 341 333 313 297 289 284 287 295 302 302 303 302 298 296 292 294
160 133 106 162 202 29 115 184 171 189 198 206 210 160 132 137 138 89 88 95 111 101 60 34 21 6 347 343 346 333 320 316 305 291 290 289 297 298 298 294 293 298 299 296
79 86 143 162 190 222 157 144 142 107 252 193 198 179 168 179 199 142 138 98 81 67 57 40 17 354 350 343 339 326 313 305 294 295 286 290 291 290 292 295 298 298 295 292
120 62 159 153 180 230 174 50 133 187 252 176 183 180 169 188 33 93 120 84 66 54 41 25 12 357 348 341 340 323 313 302 305 299 289 291 293 294 293 293 294 297 294 294
154 143 143 122 159 228 83 125 195 130 73 160 156 147 145 119 112 103 88 73 50 34 22 17 4 352 342 338 337 324 315 320 313 306 301 299 297 293 294 296 298 298 293 288
167 41 152 225 124 42 310 306 334 181 152 141 141 145 133 122 104 84 71 50 35 21 8 7 350 332 337 337 336 326 324 322 317 307 298 298 295 291 296 301 304 299 293 285
109 172 100 165 140 103 66 88 108 132 113 106 107 114 98 98 87 79 60 37 18 12 360 346 336 340 338 342 336 328 323 326 321 312 306 302 298 298 299 300 304 302 301 296
72 153 131 91 147 123 105 109 103 100 99 93 82 88 92 104 91 89 62 22 10 359 358 355 346 340 341 341 339 341 342 334 329 329 315 309 309 305 299 300 303 299 292 279
186 156 180 174 165 133 149 147 133 115 104 93 103 94 72 73 74 49 49 29 9 9 -0 354 349 347 342 339 339 347 343 335 327 318 312 308 306 303 289 283 300 275 248 273